User: anonymous   Login
Location: Potawatomi Wildlife Park
(41.2308°N, 86.1050°W)
Time: 00:28:28
(UTC-05:00)
Language:

SL-16 R/B - Orbit

View from above orbital plane
View from above orbital plane
View from above satellite
View from above satellite

Ground track
Ground track

The orbit data is extracted from the following two-line orbital elements,

1 27006U 01056F   17056.86557012 -.00000047  00000-0 -50609-5 0  9998
2 27006  99.2935 201.5823 0013942 238.0227 236.7695 13.70972152761243
Epoch (UTC): 25 February 2017 20:46:25
Eccentricity: 0.0013942
inclination: 99.2935°
perigee height: 986 km
apogee height: 1006 km
right ascension of ascending node: 201.5823°
argument of perigee: 238.0227°
revolutions per day: 13.70972152
mean anomaly at epoch: 236.7695°
orbit number at epoch: 76124

The dashed part of the orbit path shows where the satellite is in the earth's shadow,  

DLR